Regional Weather Roundup
Issued by NWS Goodland, KS

Home | Current Version | Previous Version | Text Only | Print | Product List | Glossary On
Versions: 1 2 3 4 5 6 7 8 9 10 11 12 13 14 15 16 17 18 19 20 21 22 23 24 25 26 27 28 29 30 31 32 33 34 35 36 37 38 39 40 41 42 43 44 45 46 47 48 49 50
000
ASUS43 KGLD 210108
RWRGLD

GOODLAND FORECAST AREA HOURLY WEATHER ROUNDUP
NATIONAL WEATHER SERVICE GOODLAND KS
600 PM MST SAT JAN 20 2018

...OFFICIAL OBSERVATIONS...

CITY           SKY/WX    TMP DP  RH WIND       PRES   REMARKS
GOODLAND KS    CLOUDY    35  26  69 NE8       29.75S
HILL CITY KS   CLOUDY    34  24  67 N6        29.79R
IMPERIAL NEB   CLOUDY    35  29  78 NE13      29.82R
MCCOOK NEB     CLOUDY    36  29  75 NE9       29.81R
AKRON CO       CLOUDY    30  26  85 N13       29.79S WCI  20
BURLINGTON CO  CLOUDY    34  26  72 NE8       29.75S
LIMON CO       CLOUDY    34  25  69 N5        29.77R
$$

...UNOFFICIAL OBSERVATIONS...

CITY           SKY/WX    TMP DP  RH WIND       PRES   REMARKS
COLBY KS       MOCLDY    34  30  86 NE9       29.78S
NORTON KS      CLEAR     34  27  75 N8        29.79
SHARON SPRINGS   N/A     37  25  63 CALM        N/A
KIT CARSON CO    N/A     38  26  61 MISG        N/A
YUMA CO        FAIR      32  27  80 N8        29.80R
$$



USA.gov is the U.S. government's official web portal to all federal, state and local government web resources and services.